Weather Roundup
Issued by NWS Springfield, MO

Home | Current Version | Previous Version | Text Only | Print | Product List | Glossary On
Versions: 1 2 3 4 5 6 7 8 9 10 11 12 13 14 15 16 17 18 19 20 21 22 23 24 25 26 27 28 29 30 31 32 33 34 35 36 37 38 39 40 41 42 43 44 45 46 47 48 49 50
000
NZUS99 KSGF 070707
HRRSGF

HOURLY WEATHER
NATIONAL WEATHER SERVICE SPRINGFIELD MO
200 AM CDT TUE JUL 07 2015

......SGF CWA......

CITY           SKY/WX    TMP DP  RH WIND       PRES   REMARKS
SPRINGFIELD    CLOUDY    76  71  85 NW3       29.94F
JOPLIN         LGT RAIN  72  71  97 CALM      29.94F
WEST PLAINS    MOCLDY    77  71  82 SW9       29.98F
ROLLA          LGT RAIN  72  70  93 W12G22    29.93R
OSAGE BEACH    CLOUDY    72  68  88 SW5       29.94F
BRANSON        CLOUDY    77  68  73 S6        29.97F

......SURROUNDING SGF CWA......

CITY           SKY/WX    TMP DP  RH WIND       PRES   REMARKS
CHANUTE        LGT RAIN  72  72 100 NW3       29.94S
PARSONS        CLOUDY    72  71  97 W3        29.93F
COFFEYVILLE    CLOUDY    72  71  97 CALM      29.93S
EMPORIA        RAIN      65  64  97 N14G25    29.97F FOG
GROVE OK       LGT RAIN  77  77 100 S3        29.93F
ROGERS AR      CLOUDY    78  70  76 S15G22    29.97F
SILOAM SPRINGS CLOUDY    77  66  69 S14       29.97F
HARRISON AR    CLOUDY    76  70  82 S8        29.98F
NEAR YELLVILLE MOCLDY    77  70  78 S3        29.94S

......KANSAS AND MISSOURI......

CITY           SKY/WX    TMP DP  RH WIND       PRES   REMARKS
KANSAS CTY INT LGT RAIN  63  62  97 N18G28    29.98R FOG
DOWNTOWN KC    LGT RAIN  68  66  93 N7        29.96R FOG
COLUMBIA       LGT RAIN  72  70  93 SW8       29.92R
SEDALIA        CLOUDY    73  70  90 W10G20    29.94R FOG
ST JOSEPH      LGT RAIN  65  63  93 MISG      30.00S FOG
ST LOUIS       CLOUDY    81  72  74 SW13      29.89S
SPIRIT OF STL  CLOUDY    79  73  82 SW8       29.87S
KIRKSVILLE     LGT RAIN  66  62  87 N13       29.94R FOG
WICHITA        LGT RAIN  68  66  93 N16G26    29.99R FOG
TOPEKA         HVY RAIN  63  61  93 N24G32    30.00R FOG
OLATHE         RAIN      68  68 100 N16       29.94S FOG

......TENNESSEE......

CITY           SKY/WX    TMP DP  RH WIND       PRES   REMARKS
MEMPHIS        MOCLDY    78  73  84 S10       30.04S
NASHVILLE      PTCLDY    76  73  91 VRB5      30.07S

......ARKANSAS.......

CITY           SKY/WX    TMP DP  RH WIND       PRES   REMARKS
FAYETTEVILLE   CLOUDY    77  70  79 S12       29.98F
FT SMITH       CLOUDY    79  70  74 E3        29.95F
LITTLE ROCK    CLOUDY    79  73  82 S7        30.01F

......OKLAHOMA.......

CITY           SKY/WX    TMP DP  RH WIND       PRES   REMARKS
TULSA          LGT RAIN  73  72  96 SE5       29.90F
PONCA CITY     CLOUDY    71  69  93 W5        29.93F
MCALESTER      CLOUDY    81  69  67 S8        29.95S
OKLAHOMA CITY  LGT RAIN  71  71 100 S5        29.94F

......IOWA............

CITY           SKY/WX    TMP DP  RH WIND       PRES   REMARKS
DES MOINES     MOCLDY    66  58  75 N13       30.00S HAZE
QUAD CITIES    CLOUDY    65  61  87 N8        29.88R

......ILLINOIS........

CITY           SKY/WX    TMP DP  RH WIND       PRES   REMARKS
QUINCY         LGT RAIN  72  71  97 W6        29.87S
CHICAGO        CLOUDY    71  69  93 SW8       29.83S



USA.gov is the U.S. government's official web portal to all federal, state and local government web resources and services.